sat.trackr.live / text

‹ back to catalog

STARLINK-2094

NORAD 47375 · 2021-005AC

PAYLOAD ACTIVE UNKNOWN

§ Identity

Operator
Country
US
Launch date
2021-01-20
Launch site
AFETR
Launch vehicle
Mass (kg)
RCS (m²)

Purposes: comms

External: N2YO · Heavens-Above · Gunter

§ Orbital elements

Epoch: 2026-05-25T01:14:30.429312Z

Period
94.01 min
Inclination
53.1615°
Eccentricity
0.0001210
Mean motion
15.31713895 rev/d
Perigee alt
469.9 km
Apogee alt
471.5 km
Semi-major
6,848.8 km
B*
1.0197e-4
RAAN
67.3600°
Arg perigee
89.4166°
Mean anomaly
270.6974°
Rev number
29,472

§ Raw data

STARLINK-20941 47375U 21005AC  26145.05174108  .00002802  00000+0  10197-3 0  99902 47375  53.1615  67.3600 0001210  89.4166 270.6974 15.31713895294721

JSON: /api/v1/satellites/47375 · /tle

For live sub-satellite position, see the globe view (requires WebGL).

§ Visibility from observer

Set your observer location to see the next 7 days of passes ≥ 10°. The values pass through the URL so the page stays shareable.

No JS? Fill the form by hand. The geolocation button needs JavaScript.